[[{"header":{"parameterUnit":"m.s-1","parameterCategory":1,"la1":30.2991,"la2":30.254,"lo1":-89.0895,"lo2":-89.0444,"dy":0.0017,"dx":0.0017,"nx":28,"ny":28,"refTime":"2026-01-09T03:00:00:Z","depth":0,"parameterNumber":2,"parameterNumberName":"U-component_of_WINDS"},"data":[0,0,0,0,0,0,0,0,0,0,0,0,0,0,0,0,0,0,0,0,0,0,0,0,0,0,0,0,0,0,0,0,0,0,0,0,0,0,0,0,0,0,0,0,0,0,0,0,0,0,0,0,0,0,0,0,0,0,-1.427,-1.4271,0,-1.4333,-1.4333,-1.4334,-1.4366,-1.4366,-1.4366,-1.4366,-1.4431,-1.4433,-1.4434,0,0,0,0,0,0,0,0,0,0,0,0,0,-1.4178,-1.4179,-1.427,-1.4271,-1.4271,-1.4333,-1.4333,-1.4334,-1.4366,-1.4366,-1.4366,-1.4366,-1.443,-1.4432,-1.4435,0,0,0,0,0,0,0,0,0,0,0,0,0,-1.4227,-1.418,-1.427,-1.4295,-1.4297,-1.4332,-1.4333,-1.4334,-1.4366,-1.4366,-1.4366,-1.4366,-1.443,-1.4432,-1.4435,-1.445,0,0,-1.4443,-1.4444,0,0,0,0,0,0,0,0,-1.4224,-1.423,-1.429,-1.4293,-1.4296,-1.4342,-1.4325,-1.4373,-1.4366,-1.434,-1.4366,-1.4366,-1.4401,-1.4406,-1.4418,-1.4453,-1.4456,-1.4443,-1.4444,-1.4445,-1.4446,0,0,0,0,0,0,0,-1.4221,-1.4228,-1.4295,-1.4291,-1.4295,-1.4303,-1.431,-1.4334,-1.437,-1.4342,-1.4345,-1.4352,-1.4403,-1.4415,-1.442,-1.4457,-1.4443,-1.4445,-1.4447,-1.4448,-1.4507,-1.4507,0,0,0,0,0,0,-1.4213,-1.4225,-1.4293,-1.4297,-1.4259,-1.4304,-1.4312,-1.4327,-1.437,-1.4376,-1.4352,-1.4353,-1.4411,-1.4417,-1.4422,-1.4443,-1.4445,-1.4448,-1.4449,-1.4507,-1.4507,-1.4507,0,0,0,0,0,0,-1.4211,-1.4219,-1.429,-1.4261,-1.4271,-1.4306,-1.4322,-1.4328,-1.4341,-1.4377,-1.4383,-1.4358,-1.4411,-1.4418,-1.4443,-1.4445,-1.4449,-1.4451,-1.4507,-1.4507,-1.4507,-1.4483,0,0,0,0,0,0,-1.4208,-1.4218,-1.4224,-1.4261,-1.4272,-1.431,-1.4322,-1.4329,-1.4345,-1.4347,-1.4384,-1.439,-1.4412,-1.4439,-1.4445,-1.4449,-1.4453,-1.4507,-1.4507,-1.4507,-1.4484,-1.4483,-1.4481,0,0,0,0,0,-1.4205,-1.4215,-1.4224,-1.4232,-1.4281,-1.431,-1.4316,-1.4341,-1.4345,-1.4351,-1.4374,-1.4389,-1.4444,-1.4441,-1.4449,-1.4453,-1.4507,-1.4507,-1.4507,-1.4485,-1.4483,-1.4481,0,0,0,0,0,0,-1.4178,-1.422,-1.4231,-1.4254,-1.4278,-1.4315,-1.4324,-1.4338,-1.4362,-1.4363,-1.4392,-1.44,-1.4422,-1.444,-1.4436,-1.447,-1.4477,-1.4478,-1.4457,-1.4456,-1.4454,-1.445,-1.4455,0,0,0,0,0,-1.4174,-1.4194,-1.423,-1.4247,-1.4258,-1.4289,-1.4302,-1.4319,-1.4345,-1.4356,-1.4381,-1.4406,-1.4429,-1.4443,-1.4466,-1.4487,-1.4495,-1.4494,-1.4492,-1.4491,-1.4492,-1.4504,-1.4504,-1.4508,-1.4508,-1.4508,0,0,-1.4168,-1.4193,-1.4204,-1.4242,-1.4263,-1.4282,-1.4297,-1.4318,-1.4333,-1.4359,-1.4383,-1.4402,-1.4432,-1.4455,-1.4466,-1.447,-1.4493,-1.4491,-1.449,-1.4492,-1.4504,-1.4504,-1.4503,-1.4508,-1.4508,-1.4508,0,0,-1.4165,-1.4187,-1.4203,-1.4223,-1.4254,-1.4274,-1.4278,-1.4313,-1.4326,-1.4351,-1.4371,-1.439,-1.4428,-1.4449,-1.4464,-1.4469,-1.4484,-1.4476,-1.4469,-1.448,-1.448,-1.448,-1.4482,-1.4482,-1.4477,-1.4477,-1.4477,0,-1.4153,-1.4184,-1.4209,-1.4228,-1.4244,-1.4268,-1.4285,-1.4303,-1.434,-1.4351,-1.4355,-1.4404,-1.4426,-1.4454,-1.4455,-1.4466,-1.4472,-1.4472,-1.4478,-1.4478,-1.4478,-1.448,-1.4481,-1.4476,-1.4476,-1.4476,-1.4476,0,-1.4167,-1.4188,-1.4197,-1.4232,-1.4249,-1.4266,-1.4294,-1.4309,-1.4324,-1.4343,-1.4368,-1.4395,-1.4424,-1.4432,-1.4447,-1.4461,-1.4463,-1.4472,-1.448,-1.4476,-1.4479,-1.448,-1.4474,-1.4475,-1.4475,-1.4475,0,0,-1.4151,-1.4198,-1.4201,-1.4217,-1.4252,-1.4269,-1.4288,-1.4316,-1.4327,-1.4352,-1.4368,-1.44,-1.4409,-1.4426,-1.4444,-1.4454,-1.4456,-1.4462,-1.4463,-1.446,-1.4473,-1.4466,-1.4467,-1.4465,-1.4466,-1.4466,-1.4471,0,-1.4153,-1.4188,-1.4211,-1.4236,-1.4255,-1.4278,-1.4294,-1.4318,-1.4337,-1.4356,-1.4377,-1.4399,-1.4409,-1.442,-1.443,-1.4453,-1.4459,-1.4453,-1.4481,-1.4482,-1.4473,-1.4468,-1.446,-1.4464,-1.4472,-1.4472,-1.4472,0,-1.4162,-1.4185,-1.4212,-1.4245,-1.4254,-1.4268,-1.4295,-1.4313,-1.434,-1.4353,-1.4372,-1.439,-1.4411,-1.4417,-1.4446,-1.4441,-1.4454,-1.4467,-1.4467,-1.4471,-1.4477,-1.4471,-1.4466,-1.4466,-1.4474,-1.4474,-1.4474,0,-1.4147,-1.4185,-1.4206,-1.4218,-1.4257,-1.4267,-1.4283,-1.4311,-1.4326,-1.4349,-1.436,-1.4385,-1.44,-1.442,-1.4444,-1.4446,-1.447,-1.4478,-1.4482,-1.4481,-1.4486,-1.4486,-1.4482,-1.4494,-1.4494,-1.4494,-1.4494,0,-1.4148,-1.4163,-1.4199,-1.4212,-1.423,-1.4256,-1.4274,-1.4292,-1.4316,-1.4333,-1.4355,-1.437,-1.4401,-1.4421,-1.444,-1.4461,-1.4467,-1.4478,-1.4483,-1.4477,-1.4475,-1.4486,-1.4486,-1.4494,-1.4494,-1.4494,-1.4494,0,-1.4134,-1.4159,-1.4183,-1.4218,-1.4227,-1.4238,-1.4268,-1.4282,-1.4301,-1.4323,-1.4329,-1.436,-1.4384,-1.441,-1.4443,-1.4456,-1.4476,-1.4483,-1.4466,-1.4469,-1.4472,-1.4471,-1.4475,-1.4477,-1.4487,-1.4487,-1.4487,0,-1.4133,-1.4146,-1.4181,-1.4194,-1.421,-1.423,-1.4245,-1.4272,-1.4287,-1.4318,-1.4328,-1.4353,-1.4375,-1.4412,-1.4438,-1.4463,-1.4471,-1.447,-1.4475,-1.4467,-1.4471,-1.447,-1.4471,-1.4469,-1.4469,-1.4469,-1.4469,0,-1.4129,-1.414,-1.4161,-1.4186,-1.4204,-1.4225,-1.4247,-1.4256,-1.4287,-1.4303,-1.4327,-1.4344,-1.4377,-1.4402,-1.443,-1.4448,-1.4463,-1.4467,-1.4469,-1.4462,-1.4452,-1.4458,-1.4463,-1.4467,-1.4467,-1.4467,-1.4467,-1.4467,-1.4122,-1.4134,-1.416,-1.4183,-1.4202,-1.4222,-1.4236,-1.4257,-1.4278,-1.4307,-1.4321,-1.4345,-1.4372,-1.4411,-1.4428,-1.4448,-1.4453,-1.4456,-1.4457,-1.4457,-1.4455,-1.4449,-1.4453,-1.4453,-1.4453,-1.4453,-1.4453,0,-1.4119,-1.4137,-1.4157,-1.4187,-1.4205,-1.4217,-1.4242,-1.4256,-1.4277,-1.43,-1.4321,-1.4349,-1.4373,-1.44,-1.4426,-1.4436,-1.4444,-1.4442,-1.4442,-1.4446,-1.445,-1.4445,-1.4436,-1.4436,-1.4436,-1.4436,-1.4436,-1.4436,-1.4119,-1.414,-1.4154,-1.4184,-1.4203,-1.4226,-1.4239,-1.4258,-1.4276,-1.4306,-1.4326,-1.4344,-1.4369,-1.4397,-1.4419,-1.4427,-1.4436,-1.4432,-1.4441,-1.4444,-1.4446,-1.4447,-1.4443,-1.4433,-1.4433,-1.4436,-1.4436,-1.4436]},{"header":{"parameterUnit":"m.s-1","parameterCategory":1,"la1":30.2991,"la2":30.254,"lo1":-89.0895,"lo2":-89.0444,"dy":0.0017,"dx":0.0017,"nx":28,"ny":28,"refTime":"2026-01-09T03:00:00:Z","depth":0,"parameterNumber":3,"parameterNumberName":"V-component_of_WINDS"},"data":[0,0,0,0,0,0,0,0,0,0,0,0,0,0,0,0,0,0,0,0,0,0,0,0,0,0,0,0,0,0,0,0,0,0,0,0,0,0,0,0,0,0,0,0,0,0,0,0,0,0,0,0,0,0,0,0,0,0,4.2219,4.2221,0,4.2385,4.2387,4.2389,4.2424,4.2423,4.2422,4.242,4.2585,4.259,4.2596,0,0,0,0,0,0,0,0,0,0,0,0,0,4.1929,4.1934,4.2219,4.2221,4.2223,4.2385,4.2387,4.2389,4.2424,4.2423,4.2421,4.242,4.2583,4.259,4.2596,0,0,0,0,0,0,0,0,0,0,0,0,0,4.2071,4.1936,4.2219,4.226,4.2266,4.2384,4.2387,4.239,4.2424,4.2423,4.2421,4.2419,4.2581,4.2589,4.2597,4.2685,0,0,4.2622,4.2626,0,0,0,0,0,0,0,0,4.2063,4.2081,4.2252,4.2258,4.2264,4.2382,4.2345,4.2488,4.2425,4.2364,4.242,4.2418,4.2519,4.2532,4.2567,4.2692,4.2699,4.2623,4.2628,4.2632,4.2634,0,0,0,0,0,0,0,4.2053,4.2074,4.2285,4.2255,4.2262,4.2269,4.2288,4.2372,4.2449,4.2369,4.2372,4.2392,4.2521,4.2559,4.2571,4.2702,4.2623,4.263,4.2635,4.2639,4.2909,4.2912,0,0,0,0,0,0,4.2036,4.2066,4.2279,4.229,4.2157,4.2276,4.2296,4.2346,4.2449,4.2463,4.2393,4.2393,4.2545,4.2561,4.2577,4.2689,4.2632,4.2639,4.2644,4.2907,4.291,4.2912,0,0,0,0,0,0,4.203,4.2055,4.2273,4.2179,4.2207,4.2283,4.2338,4.235,4.2388,4.2467,4.248,4.2417,4.2545,4.2565,4.2658,4.2695,4.2643,4.2651,4.2905,4.2908,4.2911,4.2911,0,0,0,0,0,0,4.2021,4.2053,4.2087,4.2179,4.2212,4.2353,4.2341,4.2355,4.2402,4.2404,4.2493,4.2506,4.2545,4.2646,4.2667,4.2705,4.2657,4.2902,4.2906,4.291,4.2908,4.2914,4.2918,0,0,0,0,0,4.2011,4.2079,4.2089,4.2115,4.2258,4.2355,4.2373,4.2418,4.2405,4.2441,4.2491,4.2503,4.2687,4.2655,4.2679,4.272,4.29,4.2905,4.291,4.2905,4.2912,4.2918,0,0,0,0,0,0,4.1987,4.2092,4.2104,4.2204,4.2271,4.2361,4.2407,4.2424,4.2494,4.2492,4.2543,4.2563,4.2653,4.2695,4.2659,4.2811,4.2792,4.2802,4.2781,4.2788,4.2793,4.2783,4.2664,0,0,0,0,0,4.1994,4.2066,4.2152,4.2232,4.2265,4.233,4.2374,4.2403,4.2473,4.2501,4.2559,4.2625,4.2698,4.2745,4.2816,4.2913,4.2934,4.2953,4.2958,4.2962,4.2971,4.3028,4.3038,4.2929,4.2929,4.2929,0,0,4.2008,4.2074,4.2116,4.2229,4.2284,4.2357,4.2354,4.243,4.2484,4.2512,4.2606,4.265,4.2727,4.2823,4.2868,4.2861,4.3006,4.2969,4.2971,4.2978,4.3034,4.3044,4.3054,4.2932,4.2932,4.2931,0,0,4.2072,4.2128,4.2203,4.2258,4.2342,4.2385,4.2403,4.2491,4.2522,4.2617,4.264,4.2704,4.2828,4.2883,4.2927,4.3012,4.3027,4.3034,4.3063,4.3117,4.3126,4.3134,4.3167,4.3178,4.3042,4.3042,4.3042,0,4.2079,4.2191,4.2238,4.2315,4.2364,4.2394,4.247,4.2521,4.2623,4.2656,4.2646,4.2805,4.2858,4.2969,4.2991,4.3024,4.3046,4.3025,4.3121,4.3129,4.3138,4.317,4.3182,4.3042,4.3042,4.3042,4.3042,0,4.2196,4.2273,4.2323,4.2424,4.2478,4.2554,4.2612,4.2661,4.2685,4.2728,4.2825,4.289,4.2977,4.3004,4.3027,4.3119,4.3112,4.3111,4.3094,4.3148,4.3179,4.3191,4.3043,4.3043,4.3043,4.3042,0,0,4.2251,4.2378,4.2396,4.2443,4.2538,4.2598,4.2674,4.2761,4.2803,4.2872,4.2938,4.3043,4.3043,4.3093,4.3122,4.317,4.3237,4.3163,4.3166,4.3177,4.3344,4.3347,4.3361,4.3245,4.3248,4.325,4.3339,0,4.2329,4.2469,4.2514,4.2631,4.2704,4.2733,4.28,4.2865,4.2908,4.2975,4.302,4.3095,4.3088,4.3119,4.3168,4.3218,4.3271,4.3212,4.3308,4.3311,4.3291,4.3377,4.3379,4.346,4.3351,4.3353,4.3355,0,4.2438,4.2513,4.2637,4.2725,4.2757,4.2817,4.2901,4.2964,4.3038,4.3066,4.3123,4.3148,4.3229,4.3205,4.3317,4.3276,4.3318,4.3348,4.3352,4.3366,4.3338,4.3394,4.3487,4.35,4.3374,4.3372,4.3371,0,4.247,4.26,4.2692,4.2731,4.2835,4.2877,4.2922,4.2994,4.3044,4.3116,4.3149,4.3228,4.3272,4.3333,4.3379,4.3357,4.3488,4.3468,4.3514,4.3513,4.3543,4.3541,4.3646,4.3564,4.3564,4.3564,4.3564,0,4.2554,4.263,4.2708,4.2765,4.2851,4.2901,4.2984,4.303,4.3095,4.3161,4.3189,4.325,4.3306,4.3375,4.3411,4.35,4.3518,4.3543,4.3553,4.3543,4.354,4.3573,4.3569,4.3567,4.3566,4.3566,4.3565,0,4.2605,4.266,4.2764,4.2854,4.2878,4.2938,4.3015,4.3071,4.3115,4.3198,4.322,4.3288,4.337,4.3422,4.3525,4.3549,4.3648,4.3653,4.3624,4.3629,4.3674,4.367,4.3807,4.3828,4.3728,4.3729,4.373,0,4.2656,4.2716,4.2814,4.2861,4.2907,4.2982,4.3034,4.3085,4.3137,4.3227,4.3272,4.3356,4.3427,4.3556,4.3614,4.3694,4.3703,4.3746,4.3716,4.3705,4.3708,4.3705,4.3712,4.3751,4.3752,4.3753,4.3754,0,4.2743,4.2768,4.2842,4.2927,4.2988,4.3056,4.3124,4.3161,4.3223,4.328,4.3366,4.342,4.3527,4.3611,4.3696,4.3741,4.3758,4.3762,4.3778,4.377,4.3752,4.3766,4.3641,4.376,4.3759,4.3759,4.3758,4.3758,4.2798,4.2854,4.2932,4.3014,4.3071,4.3134,4.3193,4.3244,4.3317,4.341,4.3434,4.3524,4.3597,4.3713,4.376,4.383,4.3825,4.3846,4.3853,4.3858,4.3861,4.3738,4.3845,4.3845,4.3845,4.3845,4.3845,0,4.289,4.2942,4.3017,4.3113,4.3177,4.3188,4.3264,4.3318,4.3397,4.3465,4.3534,4.3633,4.3714,4.3779,4.3862,4.3906,4.3917,4.3927,4.3926,4.3936,4.3859,4.3839,4.3918,4.3918,4.3918,4.3918,4.3918,4.3918,4.2945,4.304,4.3074,4.3198,4.3249,4.3339,4.3382,4.3441,4.3495,4.3605,4.3674,4.3716,4.3782,4.3871,4.3947,4.3963,4.3994,4.4003,4.4022,4.3949,4.3941,4.3934,4.3915,4.4009,4.4009,4.4094,4.4095,4.4095]}]]